CST,Max TemperatureF,Mean TemperatureF,Min TemperatureF,Max Dew PointF,MeanDew PointF,Min DewpointF,Max Humidity, Mean Humidity, Min Humidity, Max Sea Level PressureIn, Mean Sea Level PressureIn, Min Sea Level PressureIn, Max VisibilityMiles, Mean VisibilityMiles, Min VisibilityMiles, Max Wind SpeedMPH, Mean Wind SpeedMPH, Max Gust SpeedMPH,PrecipitationIn, CloudCover, Events, WindDirDegrees
2012-12-1,65,50,34,37,33,29,92,62,31,30.01,29.87,29.75,10,9,4,24,8,29,0.00,0,,276
2012-12-2,68,51,33,32,29,24,75,50,24,30.05,29.90,29.64,10,10,10,21,9,26,0.00,0,,187
2012-12-3,66,51,35,33,26,17,52,39,25,30.14,29.88,29.61,10,10,8,37,15,46,0.00,1,,344
2012-12-4,59,41,23,24,17,15,69,44,19,30.38,30.30,30.17,10,10,10,13,8,15,0.00,0,,235
2012-12-5,62,47,32,24,19,14,47,34,21,30.25,30.05,29.81,10,10,10,31,14,39,0.00,0,,178
2012-12-6,55,43,30,30,19,13,58,41,24,30.00,29.89,29.76,10,10,10,35,14,40,0.00,2,,16
2012-12-7,51,39,26,27,20,14,63,49,35,30.01,29.92,29.83,10,10,10,15,5,18,0.00,2,,14
2012-12-8,47,33,19,33,25,16,100,73,45,30.00,29.88,29.74,10,8,0,20,8,25,T,0,Fog-Rain-Snow,119
2012-12-9,32,22,12,30,10,-2,100,69,37,30.34,30.12,29.87,10,9,0,35,20,40,T,6,Fog,345
2012-12-10,42,20,-2,3,-3,-7,79,46,12,30.31,30.12,29.97,10,10,10,21,9,24,0.00,0,,266
2012-12-11,44,29,13,16,11,-2,67,49,30,30.17,30.08,30.04,10,10,10,14,8,17,0.00,1,,274
2012-12-12,53,35,17,13,11,7,67,43,19,30.03,29.97,29.91,10,10,10,22,12,25,0.00,0,,180
2012-12-13,63,43,22,18,14,11,55,36,16,30.04,29.97,29.92,10,10,10,15,7,20,0.00,0,,127
2012-12-14,52,41,30,47,39,16,100,69,37,29.90,29.62,29.38,10,8,2,32,13,44,0.53,6,Rain,174
2012-12-15,54,43,32,42,33,29,96,70,44,29.76,29.67,29.39,10,10,10,25,9,32,0.01,2,Rain,297
2012-12-16,44,37,30,36,31,26,100,84,67,29.88,29.77,29.69,10,6,0,18,9,23,T,2,Fog,19
2012-12-17,53,39,24,32,27,20,100,63,26,29.88,29.78,29.65,10,7,0,22,10,26,T,2,Fog,248
2012-12-18,55,42,28,23,19,7,75,45,15,29.84,29.76,29.64,10,10,10,20,10,23,0.00,0,,7
2012-12-19,51,38,25,34,26,21,100,73,46,30.03,29.72,29.46,10,5,0,48,20,60,0.08,6,Fog-Rain-Snow,354
2012-12-20,38,27,15,21,13,4,88,66,44,30.40,30.30,30.04,10,10,9,33,13,43,T,0,Snow,280
2012-12-21,51,36,20,26,19,13,77,53,28,30.33,30.24,30.12,10,10,10,13,6,15,0.00,0,,225
2012-12-22,52,35,18,27,21,15,84,60,35,30.08,30.03,29.96,10,10,10,15,8,17,0.00,0,,318
2012-12-23,36,26,16,25,21,14,92,76,59,30.05,30.00,29.95,10,10,10,13,7,17,0.00,0,,335
2012-12-24,31,22,13,19,16,9,88,73,58,30.08,30.02,29.91,10,10,10,28,14,33,0.00,1,,72
2012-12-25,15,10,4,10,8,1,88,81,73,30.43,30.23,29.96,10,4,1,35,21,41,T,7,Snow,15
2012-12-26,22,10,-2,10,4,-5,96,77,57,30.39,30.18,29.91,10,10,10,25,11,31,0.00,0,,135
2012-12-27,21,14,7,15,12,9,92,83,73,30.08,29.90,29.74,10,10,10,22,12,31,0.00,5,,18
2012-12-28,30,19,8,16,9,4,92,73,53,30.26,30.14,30.08,10,10,10,20,11,23,0.00,2,,328
2012-12-29,43,27,11,16,12,6,84,57,30,30.41,30.31,30.20,10,10,10,17,10,22,0.00,0,,247
2012-12-30,43,35,26,21,18,14,63,50,36,30.14,30.07,30.01,10,10,10,23,14,30,0.00,1,,181
2012-12-31,34,20,6,23,19,5,92,74,56,30.26,30.02,29.94,10,2,0,23,15,26,0.08,8,Fog-Rain-Snow,27